Time,TemperatureF,DewpointF,PressureIn,WindDirection,WindDirectionDegrees,WindSpeedMPH,WindSpeedGustMPH,Humidity,HourlyPrecipIn,Conditions,Clouds,dailyrainin,SoftwareType,DateUTC
2013-11-21 00:01:00,29.7,57.0,30.42,ENE,61,6.0,6.0,0,-99.99,,,-99.99,meteohub,2013-11-21 05:01:00,
2013-11-21 00:02:00,29.7,57.0,30.42,East,81,6.0,6.0,0,-99.99,,,-99.99,meteohub,2013-11-21 05:02:00,
2013-11-21 00:04:00,29.7,57.0,30.42,ENE,71,7.0,7.0,0,-99.99,,,-99.99,meteohub,2013-11-21 05:04:00,
2013-11-21 00:05:00,29.7,57.0,30.42,NE,39,7.0,7.0,0,-99.99,,,-99.99,meteohub,2013-11-21 05:05:00,
2013-11-21 00:10:00,29.7,57.0,30.41,ENE,68,8.0,8.0,0,-99.99,,,-99.99,meteohub,2013-11-21 05:10:00,
2013-11-21 00:16:00,29.7,57.0,30.42,NE,46,9.0,9.0,0,-99.99,,,-99.99,meteohub,2013-11-21 05:16:00,
2013-11-21 00:21:00,29.7,57.0,30.42,ENE,60,11.0,11.0,0,-99.99,,,-99.99,meteohub,2013-11-21 05:21:00,
2013-11-21 00:26:00,29.7,55.9,30.42,ENE,66,10.0,11.0,0,-99.99,,,-99.99,meteohub,2013-11-21 05:26:00,
2013-11-21 00:31:00,29.7,55.9,30.42,ENE,63,12.0,12.0,0,-99.99,,,-99.99,meteohub,2013-11-21 05:31:00,
2013-11-21 00:36:00,29.5,55.9,30.42,ENE,66,10.0,12.0,0,-99.99,,,-99.99,meteohub,2013-11-21 05:36:00,
2013-11-21 00:41:00,29.3,55.9,30.42,ENE,68,12.0,12.0,0,-99.99,,,-99.99,meteohub,2013-11-21 05:41:00,
2013-11-21 00:46:00,29.5,55.9,30.42,East,81,10.0,12.0,0,-99.99,,,-99.99,meteohub,2013-11-21 05:46:00,
2013-11-21 00:51:00,29.5,55.9,30.42,NE,54,8.0,12.0,0,-99.99,,,-99.99,meteohub,2013-11-21 05:51:00,
2013-11-21 00:57:00,29.5,55.9,30.42,NE,50,5.0,12.0,0,-99.99,,,-99.99,meteohub,2013-11-21 05:57:00,
2013-11-21 01:02:00,29.7,57.0,30.42,NE,37,9.0,10.0,0,-99.99,,,-99.99,meteohub,2013-11-21 06:02:00,
2013-11-21 01:07:00,29.5,57.0,30.42,ENE,78,8.0,9.0,0,-99.99,,,-99.99,meteohub,2013-11-21 06:07:00,
2013-11-21 01:12:00,29.5,57.0,30.42,East,82,4.0,9.0,0,-99.99,,,-99.99,meteohub,2013-11-21 06:12:00,
2013-11-21 01:17:00,29.7,57.0,30.42,NE,42,8.0,9.0,0,-99.99,,,-99.99,meteohub,2013-11-21 06:17:00,
2013-11-21 01:22:00,29.7,57.0,30.42,East,82,9.0,9.0,0,-99.99,,,-99.99,meteohub,2013-11-21 06:22:00,
2013-11-21 01:28:00,29.7,57.0,30.42,NE,54,4.0,9.0,0,-99.99,,,-99.99,meteohub,2013-11-21 06:28:00,
2013-11-21 01:33:00,29.5,57.0,30.42,NE,42,6.0,9.0,0,-99.99,,,-99.99,meteohub,2013-11-21 06:33:00,
2013-11-21 01:38:00,29.7,57.0,30.41,NE,40,7.0,9.0,0,-99.99,,,-99.99,meteohub,2013-11-21 06:38:00,
2013-11-21 01:43:00,29.5,57.0,30.41,ENE,63,9.0,9.0,0,-99.99,,,-99.99,meteohub,2013-11-21 06:43:00,
2013-11-21 01:48:00,29.5,57.0,30.41,ENE,75,9.0,9.0,0,-99.99,,,-99.99,meteohub,2013-11-21 06:48:00,
2013-11-21 01:53:00,29.7,55.9,30.41,ENE,60,10.0,10.0,0,-99.99,,,-99.99,meteohub,2013-11-21 06:53:00,
2013-11-21 01:58:00,29.7,55.9,30.41,ENE,73,9.0,9.0,0,-99.99,,,-99.99,meteohub,2013-11-21 06:58:00,
2013-11-21 02:04:00,29.8,55.9,30.41,ENE,60,8.0,10.0,0,-99.99,,,-99.99,meteohub,2013-11-21 07:04:00,
2013-11-21 02:09:00,29.7,55.9,30.41,East,97,10.0,10.0,0,-99.99,,,-99.99,meteohub,2013-11-21 07:09:00,
2013-11-21 02:14:00,29.5,55.9,30.42,ENE,60,8.0,10.0,0,-99.99,,,-99.99,meteohub,2013-11-21 07:14:00,
2013-11-21 02:19:00,29.7,55.9,30.42,NE,52,10.0,10.0,0,-99.99,,,-99.99,meteohub,2013-11-21 07:19:00,
2013-11-21 02:24:00,29.7,55.9,30.42,ENE,75,7.0,10.0,0,-99.99,,,-99.99,meteohub,2013-11-21 07:24:00,
2013-11-21 02:29:00,29.7,57.0,30.42,NE,39,7.0,10.0,0,-99.99,,,-99.99,meteohub,2013-11-21 07:29:00,
2013-11-21 02:34:00,29.7,57.0,30.42,ENE,57,10.0,10.0,0,-99.99,,,-99.99,meteohub,2013-11-21 07:34:00,
2013-11-21 02:40:00,29.7,57.0,30.42,ENE,77,8.0,10.0,0,-99.99,,,-99.99,meteohub,2013-11-21 07:40:00,
2013-11-21 02:45:00,29.8,57.0,30.41,ENE,64,11.0,11.0,0,-99.99,,,-99.99,meteohub,2013-11-21 07:45:00,
2013-11-21 02:50:00,29.8,57.0,30.42,ENE,57,8.0,11.0,0,-99.99,,,-99.99,meteohub,2013-11-21 07:50:00,
2013-11-21 02:55:00,29.7,57.0,30.42,ENE,70,7.0,11.0,0,-99.99,,,-99.99,meteohub,2013-11-21 07:55:00,
2013-11-21 03:00:00,29.7,57.0,30.42,NE,47,5.0,11.0,0,-99.99,,,-99.99,meteohub,2013-11-21 08:00:00,
2013-11-21 03:05:00,29.7,57.0,30.41,NNE,33,8.0,11.0,0,-99.99,,,-99.99,meteohub,2013-11-21 08:05:00,
2013-11-21 03:10:00,29.5,57.0,30.41,ENE,61,6.0,8.0,0,-99.99,,,-99.99,meteohub,2013-11-21 08:10:00,
2013-11-21 03:15:00,29.7,57.0,30.42,East,81,4.0,8.0,0,-99.99,,,-99.99,meteohub,2013-11-21 08:15:00,
2013-11-21 03:20:00,29.7,57.0,30.42,ENE,63,4.0,8.0,0,-99.99,,,-99.99,meteohub,2013-11-21 08:20:00,
2013-11-21 03:26:00,29.7,55.9,30.42,ENE,63,5.0,6.0,0,-99.99,,,-99.99,meteohub,2013-11-21 08:26:00,
2013-11-21 03:31:00,29.5,55.9,30.42,ENE,63,6.0,6.0,0,-99.99,,,-99.99,meteohub,2013-11-21 08:31:00,
2013-11-21 03:36:00,29.7,55.9,30.42,ENE,63,0.0,6.0,0,-99.99,,,-99.99,meteohub,2013-11-21 08:36:00,
2013-11-21 03:41:00,29.7,55.9,30.42,ENE,63,0.0,6.0,0,-99.99,,,-99.99,meteohub,2013-11-21 08:41:00,
2013-11-21 03:46:00,29.8,55.9,30.43,ENE,63,0.0,6.0,0,-99.99,,,-99.99,meteohub,2013-11-21 08:46:00,
2013-11-21 03:51:00,30.0,55.9,30.43,ENE,63,0.0,0.0,0,-99.99,,,-99.99,meteohub,2013-11-21 08:51:00,
2013-11-21 03:56:00,30.0,55.9,30.43,ENE,63,0.0,0.0,0,-99.99,,,-99.99,meteohub,2013-11-21 08:56:00,
2013-11-21 04:02:00,30.2,57.0,30.43,ENE,63,0.0,0.0,0,-99.99,,,-99.99,meteohub,2013-11-21 09:02:00,
2013-11-21 04:07:00,30.4,57.0,30.43,ENE,63,0.0,0.0,0,-99.99,,,-99.99,meteohub,2013-11-21 09:07:00,
2013-11-21 04:12:00,30.2,57.0,30.43,ENE,63,0.0,0.0,0,-99.99,,,-99.99,meteohub,2013-11-21 09:12:00,
2013-11-21 04:17:00,30.4,57.0,30.43,NE,37,4.0,4.0,0,-99.99,,,-99.99,meteohub,2013-11-21 09:17:00,
2013-11-21 04:22:00,30.4,57.0,30.43,NE,37,0.0,4.0,0,-99.99,,,-99.99,meteohub,2013-11-21 09:22:00,
2013-11-21 04:27:00,30.6,57.0,30.43,NE,37,0.0,4.0,0,-99.99,,,-99.99,meteohub,2013-11-21 09:27:00,
2013-11-21 04:32:00,30.6,57.0,30.43,NE,37,0.0,4.0,0,-99.99,,,-99.99,meteohub,2013-11-21 09:32:00,
2013-11-21 04:37:00,30.4,57.0,30.43,NE,37,0.0,0.0,0,-99.99,,,-99.99,meteohub,2013-11-21 09:37:00,
2013-11-21 04:42:00,30.4,57.0,30.43,NE,37,0.0,0.0,0,-99.99,,,-99.99,meteohub,2013-11-21 09:42:00,
2013-11-21 04:47:00,30.4,57.0,30.43,NE,37,0.0,0.0,0,-99.99,,,-99.99,meteohub,2013-11-21 09:47:00,
2013-11-21 04:52:00,30.6,55.9,30.43,NE,37,0.0,0.0,0,-99.99,,,-99.99,meteohub,2013-11-21 09:52:00,
2013-11-21 04:57:00,30.6,55.9,30.43,NE,37,0.0,0.0,0,-99.99,,,-99.99,meteohub,2013-11-21 09:57:00,
2013-11-21 05:02:00,30.7,55.9,30.43,NE,37,0.0,0.0,0,-99.99,,,-99.99,meteohub,2013-11-21 10:02:00,
2013-11-21 05:07:00,30.7,55.9,30.43,NE,37,0.0,0.0,0,-99.99,,,-99.99,meteohub,2013-11-21 10:07:00,
2013-11-21 05:12:00,30.9,55.9,30.43,NE,37,0.0,0.0,0,-99.99,,,-99.99,meteohub,2013-11-21 10:12:00,
2013-11-21 05:17:00,30.9,55.9,30.43,NE,37,0.0,0.0,0,-99.99,,,-99.99,meteohub,2013-11-21 10:17:00,
2013-11-21 05:22:00,30.9,55.9,30.44,NE,37,0.0,0.0,0,-99.99,,,-99.99,meteohub,2013-11-21 10:22:00,
2013-11-21 05:27:00,30.9,55.9,30.44,NE,37,0.0,0.0,0,-99.99,,,-99.99,meteohub,2013-11-21 10:27:00,
2013-11-21 05:32:00,30.9,55.9,30.44,NE,37,0.0,0.0,0,-99.99,,,-99.99,meteohub,2013-11-21 10:32:00,
2013-11-21 05:37:00,30.9,57.0,30.43,NE,37,0.0,0.0,0,-99.99,,,-99.99,meteohub,2013-11-21 10:37:00,
2013-11-21 05:42:00,30.9,57.0,30.43,NE,37,0.0,0.0,0,-99.99,,,-99.99,meteohub,2013-11-21 10:42:00,
2013-11-21 05:47:00,30.9,57.0,30.42,NE,37,0.0,0.0,0,-99.99,,,-99.99,meteohub,2013-11-21 10:47:00,
2013-11-21 05:52:00,30.9,57.0,30.42,NE,37,0.0,0.0,0,-99.99,,,-99.99,meteohub,2013-11-21 10:52:00,
2013-11-21 05:57:00,30.9,57.0,30.42,NE,37,0.0,0.0,0,-99.99,,,-99.99,meteohub,2013-11-21 10:57:00,
2013-11-21 06:02:00,31.1,57.0,30.42,NE,37,0.0,0.0,0,-99.99,,,-99.99,meteohub,2013-11-21 11:02:00,
2013-11-21 06:07:00,31.1,57.0,30.42,NE,37,0.0,0.0,0,-99.99,,,-99.99,meteohub,2013-11-21 11:07:00,
2013-11-21 06:12:00,31.1,57.0,30.41,ENE,67,0.0,0.0,0,-99.99,,,-99.99,meteohub,2013-11-21 11:12:00,
2013-11-21 06:17:00,30.9,55.9,30.42,East,85,4.0,4.0,0,-99.99,,,-99.99,meteohub,2013-11-21 11:17:00,
2013-11-21 06:22:00,31.1,55.9,30.42,ENE,61,6.0,6.0,0,-99.99,,,-99.99,meteohub,2013-11-21 11:22:00,
2013-11-21 06:27:00,31.5,55.9,30.42,NE,53,4.0,6.0,0,-99.99,,,-99.99,meteohub,2013-11-21 11:27:00,
2013-11-21 06:32:00,31.5,55.9,30.42,NE,37,7.0,7.0,0,-99.99,,,-99.99,meteohub,2013-11-21 11:32:00,
2013-11-21 06:37:00,31.6,55.9,30.43,East,84,5.0,7.0,0,-99.99,,,-99.99,meteohub,2013-11-21 11:37:00,
2013-11-21 06:42:00,31.6,55.9,30.42,ENE,68,6.0,7.0,0,-99.99,,,-99.99,meteohub,2013-11-21 11:42:00,
2013-11-21 06:47:00,31.5,55.9,30.42,NE,46,9.0,9.0,0,-99.99,,,-99.99,meteohub,2013-11-21 11:47:00,
2013-11-21 06:52:00,31.6,55.9,30.42,NE,46,5.0,9.0,0,-99.99,,,-99.99,meteohub,2013-11-21 11:52:00,
2013-11-21 06:57:00,31.8,55.9,30.43,ENE,64,4.0,9.0,0,-99.99,,,-99.99,meteohub,2013-11-21 11:57:00,
2013-11-21 07:02:00,31.8,57.0,30.43,ENE,61,3.0,9.0,0,-99.99,,,-99.99,meteohub,2013-11-21 12:02:00,
2013-11-21 07:08:00,31.8,57.0,30.43,East,90,7.0,7.0,0,-99.99,,,-99.99,meteohub,2013-11-21 12:08:00,
2013-11-21 07:13:00,31.8,57.0,30.43,ENE,68,6.0,7.0,0,-99.99,,,-99.99,meteohub,2013-11-21 12:13:00,
2013-11-21 07:18:00,32.4,57.0,30.44,NE,54,8.0,8.0,0,-99.99,,,-99.99,meteohub,2013-11-21 12:18:00,
2013-11-21 07:23:00,32.2,57.0,30.43,NE,54,5.0,8.0,0,-99.99,,,-99.99,meteohub,2013-11-21 12:23:00,
2013-11-21 07:28:00,31.8,57.0,30.44,NNE,21,0.0,8.0,0,-99.99,,,-99.99,meteohub,2013-11-21 12:28:00,
2013-11-21 07:33:00,32.0,57.0,30.44,ENE,60,6.0,8.0,0,-99.99,,,-99.99,meteohub,2013-11-21 12:33:00,
2013-11-21 07:38:00,32.2,55.9,30.44,NE,49,5.0,6.0,0,-99.99,,,-99.99,meteohub,2013-11-21 12:38:00,
2013-11-21 07:43:00,32.2,55.9,30.43,ENE,67,3.0,6.0,0,-99.99,,,-99.99,meteohub,2013-11-21 12:43:00,
2013-11-21 07:48:00,32.4,55.9,30.43,ENE,64,6.0,6.0,0,-99.99,,,-99.99,meteohub,2013-11-21 12:48:00,
2013-11-21 07:54:00,32.5,55.9,30.44,ENE,63,4.0,6.0,0,-99.99,,,-99.99,meteohub,2013-11-21 12:54:00,
2013-11-21 07:59:00,32.5,55.9,30.45,ENE,60,5.0,6.0,0,-99.99,,,-99.99,meteohub,2013-11-21 12:59:00,
2013-11-21 08:04:00,32.7,55.9,30.45,ENE,60,3.0,6.0,0,-99.99,,,-99.99,meteohub,2013-11-21 13:04:00,
2013-11-21 08:09:00,33.1,55.9,30.45,ENE,70,3.0,6.0,0,-99.99,,,-99.99,meteohub,2013-11-21 13:09:00,
2013-11-21 08:14:00,33.3,55.9,30.45,NE,56,6.0,6.0,0,-99.99,,,-99.99,meteohub,2013-11-21 13:14:00,
2013-11-21 08:19:00,33.4,55.9,30.44,NE,40,5.0,6.0,0,-99.99,,,-99.99,meteohub,2013-11-21 13:19:00,
2013-11-21 08:24:00,33.4,55.9,30.44,ENE,67,0.0,6.0,0,-99.99,,,-99.99,meteohub,2013-11-21 13:24:00,
2013-11-21 08:29:00,33.6,57.0,30.44,ENE,63,6.0,6.0,0,-99.99,,,-99.99,meteohub,2013-11-21 13:29:00,
2013-11-21 08:34:00,33.8,57.0,30.44,NE,43,7.0,7.0,0,-99.99,,,-99.99,meteohub,2013-11-21 13:34:00,
2013-11-21 08:40:00,33.8,57.0,30.45,ENE,64,6.0,6.0,0,-99.99,,,-99.99,meteohub,2013-11-21 13:40:00,
2013-11-21 08:45:00,33.8,57.0,30.45,ENE,78,6.0,7.0,0,-99.99,,,-99.99,meteohub,2013-11-21 13:45:00,
2013-11-21 08:50:00,33.6,57.0,30.45,ENE,64,6.0,7.0,0,-99.99,,,-99.99,meteohub,2013-11-21 13:50:00,
2013-11-21 08:55:00,34.0,57.0,30.44,ENE,64,8.0,8.0,0,-99.99,,,-99.99,meteohub,2013-11-21 13:55:00,
2013-11-21 09:00:00,34.9,55.9,30.45,NE,50,3.0,8.0,0,-99.99,,,-99.99,meteohub,2013-11-21 14:00:00,
2013-11-21 09:05:00,35.1,55.9,30.45,NE,50,0.0,8.0,0,-99.99,,,-99.99,meteohub,2013-11-21 14:05:00,
2013-11-21 09:10:00,35.2,55.9,30.45,NE,50,0.0,8.0,0,-99.99,,,-99.99,meteohub,2013-11-21 14:10:00,
2013-11-21 09:15:00,35.8,55.9,30.45,NE,50,0.0,3.0,0,-99.99,,,-99.99,meteohub,2013-11-21 14:15:00,
2013-11-21 09:20:00,35.4,55.9,30.45,NE,50,0.0,0.0,0,-99.99,,,-99.99,meteohub,2013-11-21 14:20:00,
2013-11-21 09:26:00,35.4,55.9,30.45,NE,50,0.0,0.0,0,-99.99,,,-99.99,meteohub,2013-11-21 14:26:00,
2013-11-21 09:31:00,35.8,55.9,30.45,NE,50,0.0,0.0,0,-99.99,,,-99.99,meteohub,2013-11-21 14:31:00,
2013-11-21 09:36:00,36.1,55.9,30.46,NE,50,0.0,0.0,0,-99.99,,,-99.99,meteohub,2013-11-21 14:36:00,
2013-11-21 09:41:00,36.0,55.9,30.45,NE,37,3.0,0.0,0,-99.99,,,-99.99,meteohub,2013-11-21 14:41:00,
2013-11-21 09:46:00,36.5,55.9,30.45,NE,37,0.0,3.0,0,-99.99,,,-99.99,meteohub,2013-11-21 14:46:00,
2013-11-21 09:51:00,37.0,55.9,30.45,NE,37,0.0,3.0,0,-99.99,,,-99.99,meteohub,2013-11-21 14:51:00,
2013-11-21 09:56:00,37.2,55.9,30.45,NE,37,0.0,3.0,0,-99.99,,,-99.99,meteohub,2013-11-21 14:56:00,
2013-11-21 10:01:00,37.6,55.9,30.45,NE,37,0.0,0.0,0,-99.99,,,-99.99,meteohub,2013-11-21 15:01:00,
2013-11-21 10:06:00,37.8,55.9,30.45,NE,56,3.0,0.0,0,-99.99,,,-99.99,meteohub,2013-11-21 15:06:00,
2013-11-21 10:12:00,37.9,57.0,30.45,NE,56,3.0,3.0,0,-99.99,,,-99.99,meteohub,2013-11-21 15:12:00,
2013-11-21 10:17:00,38.5,57.0,30.45,NE,56,0.0,3.0,0,-99.99,,,-99.99,meteohub,2013-11-21 15:17:00,
2013-11-21 10:22:00,38.3,57.0,30.45,NE,56,1.0,3.0,0,-99.99,,,-99.99,meteohub,2013-11-21 15:22:00,
2013-11-21 10:27:00,38.1,57.0,30.45,NE,56,0.0,3.0,0,-99.99,,,-99.99,meteohub,2013-11-21 15:27:00,
2013-11-21 10:32:00,37.9,57.0,30.45,NE,56,0.0,1.0,0,-99.99,,,-99.99,meteohub,2013-11-21 15:32:00,
2013-11-21 10:37:00,37.6,55.9,30.45,NE,53,0.0,1.0,0,-99.99,,,-99.99,meteohub,2013-11-21 15:37:00,
2013-11-21 10:42:00,37.9,55.9,30.45,NE,53,3.0,0.0,0,-99.99,,,-99.99,meteohub,2013-11-21 15:42:00,
2013-11-21 10:47:00,38.8,55.9,30.44,NE,43,0.0,3.0,0,-99.99,,,-99.99,meteohub,2013-11-21 15:47:00,
2013-11-21 10:52:00,38.8,55.9,30.44,ENE,57,4.0,4.0,0,-99.99,,,-99.99,meteohub,2013-11-21 15:52:00,
2013-11-21 10:57:00,38.8,55.9,30.44,ENE,73,6.0,6.0,0,-99.99,,,-99.99,meteohub,2013-11-21 15:57:00,
2013-11-21 11:02:00,38.8,55.9,30.43,ENE,63,5.0,6.0,0,-99.99,,,-99.99,meteohub,2013-11-21 16:02:00,
2013-11-21 11:07:00,39.2,55.9,30.43,ENE,70,4.0,6.0,0,-99.99,,,-99.99,meteohub,2013-11-21 16:07:00,
2013-11-21 11:12:00,40.1,55.9,30.43,NE,37,6.0,6.0,0,-99.99,,,-99.99,meteohub,2013-11-21 16:12:00,
2013-11-21 11:17:00,39.7,55.9,30.43,ENE,64,6.0,6.0,0,-99.99,,,-99.99,meteohub,2013-11-21 16:17:00,
2013-11-21 11:22:00,39.0,55.9,30.43,ENE,64,5.0,6.0,0,-99.99,,,-99.99,meteohub,2013-11-21 16:22:00,
2013-11-21 11:27:00,39.0,55.9,30.43,NE,52,5.0,6.0,0,-99.99,,,-99.99,meteohub,2013-11-21 16:27:00,
2013-11-21 11:32:00,38.8,55.9,30.42,NE,49,6.0,6.0,0,-99.99,,,-99.99,meteohub,2013-11-21 16:32:00,
2013-11-21 11:37:00,39.0,55.9,30.42,ENE,70,7.0,7.0,0,-99.99,,,-99.99,meteohub,2013-11-21 16:37:00,
2013-11-21 11:42:00,39.0,55.9,30.42,NE,37,8.0,8.0,0,-99.99,,,-99.99,meteohub,2013-11-21 16:42:00,
2013-11-21 11:47:00,39.0,55.9,30.42,ENE,68,6.0,8.0,0,-99.99,,,-99.99,meteohub,2013-11-21 16:47:00,
2013-11-21 11:52:00,39.4,55.9,30.41,NE,35,7.0,8.0,0,-99.99,,,-99.99,meteohub,2013-11-21 16:52:00,
2013-11-21 11:57:00,39.7,55.9,30.41,ENE,57,6.0,8.0,0,-99.99,,,-99.99,meteohub,2013-11-21 16:57:00,
2013-11-21 12:02:00,40.1,55.9,30.41,NE,56,7.0,7.0,0,-99.99,,,-99.99,meteohub,2013-11-21 17:02:00,
2013-11-21 12:07:00,40.6,55.9,30.41,ENE,60,8.0,8.0,0,-99.99,,,-99.99,meteohub,2013-11-21 17:07:00,
2013-11-21 12:12:00,40.6,55.9,30.41,NE,56,5.0,8.0,0,-99.99,,,-99.99,meteohub,2013-11-21 17:12:00,
2013-11-21 12:17:00,41.0,55.9,30.40,ENE,63,6.0,8.0,0,-99.99,,,-99.99,meteohub,2013-11-21 17:17:00,
2013-11-21 12:22:00,41.4,55.9,30.40,ENE,63,6.0,8.0,0,-99.99,,,-99.99,meteohub,2013-11-21 17:22:00,
2013-11-21 12:27:00,41.5,55.9,30.39,ENE,59,6.0,6.0,0,-99.99,,,-99.99,meteohub,2013-11-21 17:27:00,
2013-11-21 12:32:00,42.3,55.9,30.39,ENE,61,9.0,9.0,0,-99.99,,,-99.99,meteohub,2013-11-21 17:32:00,
2013-11-21 12:37:00,41.7,55.9,30.39,East,81,9.0,9.0,0,-99.99,,,-99.99,meteohub,2013-11-21 17:37:00,
2013-11-21 12:42:00,41.2,55.9,30.39,NE,35,11.0,11.0,0,-99.99,,,-99.99,meteohub,2013-11-21 17:42:00,
2013-11-21 12:47:00,41.2,55.9,30.39,NE,50,6.0,11.0,0,-99.99,,,-99.99,meteohub,2013-11-21 17:47:00,
2013-11-21 12:52:00,40.8,55.9,30.39,NE,47,6.0,11.0,0,-99.99,,,-99.99,meteohub,2013-11-21 17:52:00,
2013-11-21 12:57:00,41.4,55.9,30.39,NE,46,10.0,11.0,0,-99.99,,,-99.99,meteohub,2013-11-21 17:57:00,
2013-11-21 13:02:00,42.3,55.9,30.39,NE,52,8.0,10.0,0,-99.99,,,-99.99,meteohub,2013-11-21 18:02:00,
2013-11-21 13:07:00,43.0,55.9,30.39,ENE,61,7.0,10.0,0,-99.99,,,-99.99,meteohub,2013-11-21 18:07:00,
2013-11-21 13:12:00,42.4,55.9,30.39,ENE,73,9.0,10.0,0,-99.99,,,-99.99,meteohub,2013-11-21 18:12:00,
2013-11-21 13:17:00,42.4,55.9,30.39,NNE,33,7.0,9.0,0,-99.99,,,-99.99,meteohub,2013-11-21 18:17:00,
2013-11-21 13:22:00,42.4,55.9,30.39,NE,43,7.0,9.0,0,-99.99,,,-99.99,meteohub,2013-11-21 18:22:00,
2013-11-21 13:27:00,43.3,55.9,30.39,NE,47,8.0,9.0,0,-99.99,,,-99.99,meteohub,2013-11-21 18:27:00,
2013-11-21 13:32:00,45.0,55.9,30.39,NE,56,7.0,8.0,0,-99.99,,,-99.99,meteohub,2013-11-21 18:32:00,
2013-11-21 13:37:00,44.1,55.9,30.38,NE,52,4.0,8.0,0,-99.99,,,-99.99,meteohub,2013-11-21 18:37:00,
2013-11-21 13:42:00,43.3,57.0,30.38,NE,37,0.0,8.0,0,-99.99,,,-99.99,meteohub,2013-11-21 18:42:00,
2013-11-21 13:47:00,43.3,57.0,30.38,ENE,60,3.0,7.0,0,-99.99,,,-99.99,meteohub,2013-11-21 18:47:00,
2013-11-21 13:52:00,42.6,57.0,30.38,ENE,60,3.0,4.0,0,-99.99,,,-99.99,meteohub,2013-11-21 18:52:00,
2013-11-21 13:57:00,42.4,57.0,30.37,NE,36,5.0,5.0,0,-99.99,,,-99.99,meteohub,2013-11-21 18:57:00,
2013-11-21 14:02:00,42.1,57.0,30.37,NE,56,7.0,7.0,0,-99.99,,,-99.99,meteohub,2013-11-21 19:02:00,
2013-11-21 14:07:00,42.4,57.0,30.36,ENE,60,4.0,7.0,0,-99.99,,,-99.99,meteohub,2013-11-21 19:07:00,
2013-11-21 14:12:00,42.8,57.0,30.36,NE,46,5.0,7.0,0,-99.99,,,-99.99,meteohub,2013-11-21 19:12:00,
2013-11-21 14:18:00,43.2,57.0,30.36,NE,52,6.0,7.0,0,-99.99,,,-99.99,meteohub,2013-11-21 19:18:00,
2013-11-21 14:23:00,42.6,57.0,30.36,ENE,74,4.0,6.0,0,-99.99,,,-99.99,meteohub,2013-11-21 19:23:00,
2013-11-21 14:28:00,42.3,57.0,30.36,NE,39,5.0,6.0,0,-99.99,,,-99.99,meteohub,2013-11-21 19:28:00,
2013-11-21 14:33:00,42.3,57.0,30.36,East,80,5.0,6.0,0,-99.99,,,-99.99,meteohub,2013-11-21 19:33:00,
2013-11-21 14:38:00,42.3,57.0,30.36,East,80,6.0,6.0,0,-99.99,,,-99.99,meteohub,2013-11-21 19:38:00,
2013-11-21 14:43:00,42.1,57.0,30.35,East,80,0.0,6.0,0,-99.99,,,-99.99,meteohub,2013-11-21 19:43:00,
2013-11-21 14:48:00,42.3,57.0,30.35,NE,54,4.0,6.0,0,-99.99,,,-99.99,meteohub,2013-11-21 19:48:00,
2013-11-21 14:53:00,42.3,57.0,30.35,NE,46,7.0,7.0,0,-99.99,,,-99.99,meteohub,2013-11-21 19:53:00,
2013-11-21 14:59:00,41.9,57.0,30.35,NE,56,5.0,5.0,0,-99.99,,,-99.99,meteohub,2013-11-21 19:59:00,
2013-11-21 15:04:00,41.7,57.0,30.35,ENE,64,5.0,7.0,0,-99.99,,,-99.99,meteohub,2013-11-21 20:04:00,
2013-11-21 15:09:00,41.5,57.0,30.35,NE,53,7.0,7.0,0,-99.99,,,-99.99,meteohub,2013-11-21 20:09:00,
2013-11-21 15:14:00,41.7,57.0,30.35,ENE,57,5.0,7.0,0,-99.99,,,-99.99,meteohub,2013-11-21 20:14:00,
2013-11-21 15:19:00,41.7,57.0,30.35,ENE,67,6.0,7.0,0,-99.99,,,-99.99,meteohub,2013-11-21 20:19:00,
2013-11-21 15:24:00,41.7,57.0,30.35,ENE,66,6.0,7.0,0,-99.99,,,-99.99,meteohub,2013-11-21 20:24:00,
2013-11-21 15:29:00,41.2,57.0,30.35,ENE,71,8.0,8.0,0,-99.99,,,-99.99,meteohub,2013-11-21 20:29:00,
2013-11-21 15:34:00,41.4,57.0,30.35,NE,40,10.0,10.0,0,-99.99,,,-99.99,meteohub,2013-11-21 20:34:00,
2013-11-21 15:39:00,41.2,57.0,30.35,NE,54,8.0,10.0,0,-99.99,,,-99.99,meteohub,2013-11-21 20:39:00,
2013-11-21 15:45:00,41.2,57.0,30.35,ENE,64,8.0,10.0,0,-99.99,,,-99.99,meteohub,2013-11-21 20:45:00,
2013-11-21 15:50:00,41.2,57.0,30.35,NNE,18,8.0,10.0,0,-99.99,,,-99.99,meteohub,2013-11-21 20:50:00,
2013-11-21 15:55:00,41.0,57.0,30.35,NE,50,8.0,10.0,0,-99.99,,,-99.99,meteohub,2013-11-21 20:55:00,
2013-11-21 16:00:00,40.8,57.0,30.35,East,81,8.0,8.0,0,-99.99,,,-99.99,meteohub,2013-11-21 21:00:00,
2013-11-21 16:05:00,40.8,57.0,30.35,ENE,77,6.0,8.0,0,-99.99,,,-99.99,meteohub,2013-11-21 21:05:00,
2013-11-21 16:10:00,40.6,57.0,30.35,NE,52,5.0,8.0,0,-99.99,,,-99.99,meteohub,2013-11-21 21:10:00,
2013-11-21 16:15:00,40.6,57.0,30.35,ENE,60,7.0,8.0,0,-99.99,,,-99.99,meteohub,2013-11-21 21:15:00,
2013-11-21 16:20:00,40.5,57.0,30.35,NE,52,5.0,7.0,0,-99.99,,,-99.99,meteohub,2013-11-21 21:20:00,
2013-11-21 16:25:00,40.3,57.0,30.35,ENE,71,6.0,7.0,0,-99.99,,,-99.99,meteohub,2013-11-21 21:25:00,
2013-11-21 16:31:00,40.1,57.0,30.35,ENE,68,5.0,7.0,0,-99.99,,,-99.99,meteohub,2013-11-21 21:31:00,
2013-11-21 16:36:00,39.9,57.0,30.35,ENE,66,6.0,6.0,0,-99.99,,,-99.99,meteohub,2013-11-21 21:36:00,
2013-11-21 16:41:00,39.9,57.0,30.35,NE,50,6.0,6.0,0,-99.99,,,-99.99,meteohub,2013-11-21 21:41:00,
2013-11-21 16:46:00,39.7,57.0,30.35,NE,56,7.0,7.0,0,-99.99,,,-99.99,meteohub,2013-11-21 21:46:00,
2013-11-21 16:51:00,39.6,57.0,30.34,ENE,59,8.0,8.0,0,-99.99,,,-99.99,meteohub,2013-11-21 21:51:00,
2013-11-21 16:56:00,39.6,57.0,30.35,NNE,29,8.0,8.0,0,-99.99,,,-99.99,meteohub,2013-11-21 21:56:00,
2013-11-21 17:01:00,39.6,57.0,30.35,NE,56,8.0,8.0,0,-99.99,,,-99.99,meteohub,2013-11-21 22:01:00,
2013-11-21 17:06:00,39.6,57.0,30.35,ENE,70,8.0,8.0,0,-99.99,,,-99.99,meteohub,2013-11-21 22:06:00,
2013-11-21 17:12:00,39.6,57.0,30.36,ENE,75,7.0,8.0,0,-99.99,,,-99.99,meteohub,2013-11-21 22:12:00,
2013-11-21 17:17:00,39.7,57.0,30.36,ENE,61,8.0,8.0,0,-99.99,,,-99.99,meteohub,2013-11-21 22:17:00,
2013-11-21 17:22:00,39.6,57.0,30.36,ENE,61,6.0,8.0,0,-99.99,,,-99.99,meteohub,2013-11-21 22:22:00,
2013-11-21 17:27:00,39.7,57.0,30.36,NE,47,7.0,8.0,0,-99.99,,,-99.99,meteohub,2013-11-21 22:27:00,
2013-11-21 17:32:00,39.6,57.0,30.36,ENE,64,7.0,8.0,0,-99.99,,,-99.99,meteohub,2013-11-21 22:32:00,
2013-11-21 17:37:00,39.2,57.0,30.35,ENE,71,8.0,8.0,0,-99.99,,,-99.99,meteohub,2013-11-21 22:37:00,
2013-11-21 17:42:00,39.0,57.0,30.35,ENE,64,7.0,8.0,0,-99.99,,,-99.99,meteohub,2013-11-21 22:42:00,
2013-11-21 17:47:00,38.8,57.0,30.35,ENE,67,7.0,8.0,0,-99.99,,,-99.99,meteohub,2013-11-21 22:47:00,
2013-11-21 17:52:00,38.8,57.0,30.35,ENE,68,7.0,8.0,0,-99.99,,,-99.99,meteohub,2013-11-21 22:52:00,
2013-11-21 17:57:00,38.8,57.0,30.35,ENE,64,7.0,7.0,0,-99.99,,,-99.99,meteohub,2013-11-21 22:57:00,
2013-11-21 18:02:00,38.8,57.0,30.36,East,95,8.0,8.0,0,-99.99,,,-99.99,meteohub,2013-11-21 23:02:00,
2013-11-21 18:07:00,38.7,57.0,30.36,NE,54,9.0,9.0,0,-99.99,,,-99.99,meteohub,2013-11-21 23:07:00,
2013-11-21 18:12:00,38.5,57.9,30.36,NE,53,7.0,9.0,0,-99.99,,,-99.99,meteohub,2013-11-21 23:12:00,
2013-11-21 18:17:00,38.7,57.9,30.36,NE,56,7.0,9.0,0,-99.99,,,-99.99,meteohub,2013-11-21 23:17:00,
2013-11-21 18:23:00,38.5,57.9,30.36,NE,56,7.0,9.0,0,-99.99,,,-99.99,meteohub,2013-11-21 23:23:00,
2013-11-21 18:28:00,38.5,57.0,30.36,NE,50,7.0,7.0,0,-99.99,,,-99.99,meteohub,2013-11-21 23:28:00,
2013-11-21 18:33:00,38.5,57.0,30.36,NE,46,6.0,7.0,0,-99.99,,,-99.99,meteohub,2013-11-21 23:33:00,
2013-11-21 18:38:00,38.5,57.0,30.36,ENE,60,5.0,7.0,0,-99.99,,,-99.99,meteohub,2013-11-21 23:38:00,
2013-11-21 18:43:00,38.5,57.0,30.35,NE,47,5.0,7.0,0,-99.99,,,-99.99,meteohub,2013-11-21 23:43:00,
2013-11-21 18:48:00,38.5,57.0,30.35,NE,45,6.0,6.0,0,-99.99,,,-99.99,meteohub,2013-11-21 23:48:00,
2013-11-21 18:53:00,38.3,57.0,30.35,NE,45,6.0,6.0,0,-99.99,,,-99.99,meteohub,2013-11-21 23:53:00,
2013-11-21 18:58:00,38.1,57.0,30.35,NE,46,7.0,7.0,0,-99.99,,,-99.99,meteohub,2013-11-21 23:58:00,
2013-11-21 19:04:00,37.9,57.0,30.35,NE,52,6.0,6.0,0,-99.99,,,-99.99,meteohub,2013-11-22 00:04:00,
2013-11-21 19:09:00,37.9,57.0,30.35,East,81,6.0,7.0,0,-99.99,,,-99.99,meteohub,2013-11-22 00:09:00,
2013-11-21 19:14:00,37.9,57.0,30.35,East,90,5.0,7.0,0,-99.99,,,-99.99,meteohub,2013-11-22 00:14:00,
2013-11-21 19:19:00,37.9,57.0,30.35,NE,54,9.0,9.0,0,-99.99,,,-99.99,meteohub,2013-11-22 00:19:00,
2013-11-21 19:24:00,37.8,57.0,30.34,NE,49,9.0,9.0,0,-99.99,,,-99.99,meteohub,2013-11-22 00:24:00,
2013-11-21 19:29:00,37.8,57.0,30.34,ENE,60,7.0,9.0,0,-99.99,,,-99.99,meteohub,2013-11-22 00:29:00,
2013-11-21 19:34:00,37.8,57.0,30.34,ENE,57,9.0,9.0,0,-99.99,,,-99.99,meteohub,2013-11-22 00:34:00,
2013-11-21 19:39:00,37.8,57.0,30.34,ENE,71,6.0,9.0,0,-99.99,,,-99.99,meteohub,2013-11-22 00:39:00,
2013-11-21 19:45:00,37.6,57.0,30.34,ENE,59,6.0,9.0,0,-99.99,,,-99.99,meteohub,2013-11-22 00:45:00,
2013-11-21 19:50:00,37.6,57.0,30.35,ENE,57,7.0,9.0,0,-99.99,,,-99.99,meteohub,2013-11-22 00:50:00,
2013-11-21 19:55:00,37.8,57.0,30.35,ENE,57,4.0,9.0,0,-99.99,,,-99.99,meteohub,2013-11-22 00:55:00,
2013-11-21 20:00:00,38.1,57.0,30.34,ENE,57,4.0,7.0,0,-99.99,,,-99.99,meteohub,2013-11-22 01:00:00,
2013-11-21 20:05:00,38.1,57.9,30.34,ENE,64,4.0,7.0,0,-99.99,,,-99.99,meteohub,2013-11-22 01:05:00,
2013-11-21 20:10:00,38.1,57.9,30.34,NE,47,6.0,7.0,0,-99.99,,,-99.99,meteohub,2013-11-22 01:10:00,
2013-11-21 20:15:00,38.5,57.9,30.34,ENE,70,5.0,6.0,0,-99.99,,,-99.99,meteohub,2013-11-22 01:15:00,
2013-11-21 20:20:00,38.7,57.9,30.34,ENE,70,0.0,6.0,0,-99.99,,,-99.99,meteohub,2013-11-22 01:20:00,
2013-11-21 20:26:00,38.7,57.9,30.33,NE,54,4.0,6.0,0,-99.99,,,-99.99,meteohub,2013-11-22 01:26:00,
2013-11-21 20:31:00,38.8,57.0,30.33,NE,54,6.0,6.0,0,-99.99,,,-99.99,meteohub,2013-11-22 01:31:00,
2013-11-21 20:36:00,38.7,57.0,30.33,ENE,64,4.0,6.0,0,-99.99,,,-99.99,meteohub,2013-11-22 01:36:00,
2013-11-21 20:41:00,38.8,57.0,30.34,NE,54,4.0,6.0,0,-99.99,,,-99.99,meteohub,2013-11-22 01:41:00,
2013-11-21 20:46:00,38.8,57.0,30.34,NE,54,0.0,6.0,0,-99.99,,,-99.99,meteohub,2013-11-22 01:46:00,
2013-11-21 20:51:00,39.0,57.0,30.33,NE,54,0.0,4.0,0,-99.99,,,-99.99,meteohub,2013-11-22 01:51:00,
2013-11-21 20:56:00,38.8,57.0,30.34,NE,54,0.0,4.0,0,-99.99,,,-99.99,meteohub,2013-11-22 01:56:00,
2013-11-21 21:01:00,39.2,57.0,30.34,ENE,63,3.0,3.0,0,-99.99,,,-99.99,meteohub,2013-11-22 02:01:00,
2013-11-21 21:06:00,39.0,57.0,30.34,ENE,63,4.0,4.0,0,-99.99,,,-99.99,meteohub,2013-11-22 02:06:00,
2013-11-21 21:09:00,39.0,57.0,30.34,ENE,63,0.0,4.0,0,-99.99,,,-99.99,meteohub,2013-11-22 02:09:00,
2013-11-21 21:10:00,39.4,57.0,30.34,ENE,63,0.0,4.0,0,-99.99,,,-99.99,meteohub,2013-11-22 02:10:00,
2013-11-21 21:11:00,39.4,57.0,30.34,ENE,63,0.0,4.0,0,-99.99,,,-99.99,meteohub,2013-11-22 02:11:00,
2013-11-21 21:12:00,39.4,57.0,30.34,ENE,63,0.0,4.0,0,-99.99,,,-99.99,meteohub,2013-11-22 02:12:00,
2013-11-21 21:17:00,39.4,57.0,30.34,East,94,0.0,4.0,0,-99.99,,,-99.99,meteohub,2013-11-22 02:17:00,
2013-11-21 21:22:00,39.6,57.0,30.34,East,94,3.0,4.0,0,-99.99,,,-99.99,meteohub,2013-11-22 02:22:00,
2013-11-21 21:27:00,39.7,57.0,30.34,East,94,0.0,3.0,0,-99.99,,,-99.99,meteohub,2013-11-22 02:27:00,
2013-11-21 21:32:00,40.3,57.0,30.34,East,94,0.0,3.0,0,-99.99,,,-99.99,meteohub,2013-11-22 02:32:00,
2013-11-21 21:37:00,40.3,57.0,30.34,East,94,0.0,3.0,0,-99.99,,,-99.99,meteohub,2013-11-22 02:37:00,
2013-11-21 21:42:00,40.1,57.0,30.34,NE,35,0.0,0.0,0,-99.99,,,-99.99,meteohub,2013-11-22 02:42:00,
2013-11-21 21:48:00,40.5,57.0,30.34,NE,43,6.0,0.0,0,-99.99,,,-99.99,meteohub,2013-11-22 02:48:00,
2013-11-21 21:53:00,40.5,57.9,30.34,NE,50,3.0,6.0,0,-99.99,,,-99.99,meteohub,2013-11-22 02:53:00,
2013-11-21 21:58:00,40.5,57.9,30.34,East,94,6.0,6.0,0,-99.99,,,-99.99,meteohub,2013-11-22 02:58:00,
2013-11-21 22:03:00,40.5,57.9,30.33,NNE,12,5.0,6.0,0,-99.99,,,-99.99,meteohub,2013-11-22 03:03:00,
2013-11-21 22:08:00,40.5,57.9,30.33,NE,43,4.0,6.0,0,-99.99,,,-99.99,meteohub,2013-11-22 03:08:00,
2013-11-21 22:13:00,40.8,57.9,30.33,NE,43,4.0,6.0,0,-99.99,,,-99.99,meteohub,2013-11-22 03:13:00,
2013-11-21 22:18:00,40.8,57.9,30.32,NE,43,0.0,6.0,0,-99.99,,,-99.99,meteohub,2013-11-22 03:18:00,
2013-11-21 22:23:00,40.8,57.9,30.32,NE,54,6.0,6.0,0,-99.99,,,-99.99,meteohub,2013-11-22 03:23:00,
2013-11-21 22:29:00,41.0,57.9,30.32,NE,54,0.0,6.0,0,-99.99,,,-99.99,meteohub,2013-11-22 03:29:00,
2013-11-21 22:34:00,41.0,57.9,30.32,NE,54,0.0,6.0,0,-99.99,,,-99.99,meteohub,2013-11-22 03:34:00,
2013-11-21 22:39:00,41.2,57.9,30.32,NE,54,0.0,6.0,0,-99.99,,,-99.99,meteohub,2013-11-22 03:39:00,
2013-11-21 22:44:00,41.4,57.0,30.32,NE,54,0.0,6.0,0,-99.99,,,-99.99,meteohub,2013-11-22 03:44:00,
2013-11-21 22:49:00,41.2,57.0,30.32,NNE,21,5.0,0.0,0,-99.99,,,-99.99,meteohub,2013-11-22 03:49:00,
2013-11-21 22:54:00,41.2,57.0,30.32,ENE,74,0.0,5.0,0,-99.99,,,-99.99,meteohub,2013-11-22 03:54:00,
2013-11-21 22:59:00,41.5,57.0,30.32,ENE,60,5.0,5.0,0,-99.99,,,-99.99,meteohub,2013-11-22 03:59:00,
2013-11-21 23:04:00,41.7,57.0,30.32,NE,40,6.0,6.0,0,-99.99,,,-99.99,meteohub,2013-11-22 04:04:00,
2013-11-21 23:09:00,41.7,57.0,30.32,ENE,59,4.0,6.0,0,-99.99,,,-99.99,meteohub,2013-11-22 04:09:00,
2013-11-21 23:15:00,41.7,57.0,30.32,NE,56,5.0,6.0,0,-99.99,,,-99.99,meteohub,2013-11-22 04:15:00,
2013-11-21 23:20:00,41.7,57.0,30.32,ENE,61,3.0,6.0,0,-99.99,,,-99.99,meteohub,2013-11-22 04:20:00,
2013-11-21 23:25:00,41.7,57.0,30.31,ENE,63,5.0,6.0,0,-99.99,,,-99.99,meteohub,2013-11-22 04:25:00,
2013-11-21 23:30:00,41.7,57.0,30.31,NE,56,6.0,6.0,0,-99.99,,,-99.99,meteohub,2013-11-22 04:30:00,
2013-11-21 23:35:00,41.5,57.0,30.30,NE,36,6.0,6.0,0,-99.99,,,-99.99,meteohub,2013-11-22 04:35:00,
2013-11-21 23:40:00,41.4,57.0,30.30,NE,49,5.0,6.0,0,-99.99,,,-99.99,meteohub,2013-11-22 04:40:00,
2013-11-21 23:45:00,41.5,57.0,30.30,ENE,70,7.0,7.0,0,-99.99,,,-99.99,meteohub,2013-11-22 04:45:00,
2013-11-21 23:50:00,41.9,57.0,30.30,NE,56,7.0,7.0,0,-99.99,,,-99.99,meteohub,2013-11-22 04:50:00,
2013-11-21 23:55:00,42.3,57.9,30.31,North,358,9.0,9.0,0,-99.99,,,-99.99,meteohub,2013-11-22 04:55:00,